sat.trackr.live / text

‹ back to catalog

ONEWEB-0434

NORAD 51631 · 2022-012K

PAYLOAD ACTIVE UNKNOWN

§ Identity

Operator
Country
UK
Launch date
2022-02-10
Launch site
FRGUI
Launch vehicle
Mass (kg)
RCS (m²)

Purposes: comms

External: N2YO · Heavens-Above · Gunter

§ Orbital elements

Epoch: 2026-09-20T00:34:56.554752Z

Period
109.89 min
Inclination
87.8903°
Eccentricity
0.0002225
Mean motion
13.10368984 rev/d
Perigee alt
1,220.0 km
Apogee alt
1,223.4 km
Semi-major
7,599.9 km
B*
-5.8240e-4
RAAN
17.4137°
Arg perigee
113.4752°
Mean anomaly
246.6609°
Rev number
22,174

§ Raw data

ONEWEB-04341 51631U 22012K   26263.02426568 -.00000191  00000+0 -58240-3 0  99992 51631  87.8903  17.4137 0002225 113.4752 246.6609 13.10368984221742

JSON: /api/v1/satellites/51631 · /tle

For live sub-satellite position, see the globe view (requires WebGL).

§ Visibility from observer

Set your observer location to see the next 7 days of passes ≥ 10°. The values pass through the URL so the page stays shareable.

No JS? Fill the form by hand. The geolocation button needs JavaScript.